This is the latest recevied weather packets stored in our database for station/object KD9JJA. If no packets are shown the sender has not sent any weather packets the latest 1 day(s).
| Time | Temp. | Humidity | Pressure | Rain* | Wind** | Luminosity | Snow |
|---|---|---|---|---|---|---|---|
| 1778038554 | 8.89° C | 99% | 1011.1 hPa | 4.32 mm | 0 m/s | 0 W/m² | - |
| 1778038250 | 8.89° C | 99% | 1010.9 hPa | 3.05 mm | 0 m/s | 0 W/m² | - |
| 1778037948 | 8.89° C | 99% | 1010.3 hPa | 3.56 mm | 0 m/s | 0 W/m² | - |
| 1778037645 | 8.89° C | 99% | 1010.5 hPa | 7.87 mm | 0 m/s | 0 W/m² | - |
| 1778037342 | 8.89° C | 99% | 1010.7 hPa | 10.16 mm | 0 m/s | 0 W/m² | - |
| 1778037039 | 9.44° C | 99% | 1010.8 hPa | 10.67 mm | 0 m/s | 0 W/m² | - |
| 1778036737 | 9.44° C | 99% | 1011.1 hPa | 9.65 mm | 0 m/s | 0 W/m² | - |
| 1778036434 | 9.44° C | 99% | 1011.1 hPa | 8.89 mm | 0 m/s | 0 W/m² | - |
| 1778036131 | 8.89° C | 99% | 1010.4 hPa | 10.16 mm | 0 m/s | 0 W/m² | - |
| 1778035827 | 8.89° C | 99% | 1010.5 hPa | 10.67 mm | 0 m/s | 0 W/m² | - |
| 1778035524 | 8.89° C | 99% | 1009.8 hPa | 12.7 mm | 0 m/s | 0 W/m² | - |
| 1778035220 | 9.44° C | 99% | 1009.9 hPa | 10.67 mm | 0 m/s | 0 W/m² | - |
| 1778034917 | 8.89° C | 99% | 1010 hPa | 7.87 mm | 0 m/s | 0 W/m² | - |
| 1778034615 | 8.89° C | 99% | 1010.3 hPa | 7.11 mm | 0 m/s | 0 W/m² | - |
| 1778034312 | 8.89° C | 99% | 1010.2 hPa | 6.6 mm | 0 m/s | 0 W/m² | - |
| 1778034009 | 8.89° C | 99% | 1010.6 hPa | 1.78 mm | 0 m/s | 0 W/m² | - |
| 1778033706 | 8.89° C | 99% | 1010.4 hPa | 1.27 mm | 0.45 m/s, 98° | 0 W/m² | - |
| 1778033403 | 9.44° C | 99% | 1010.6 hPa | 7.11 mm | 0 m/s | 0 W/m² | - |
| 1778033101 | 9.44° C | 99% | 1010.7 hPa | 13.72 mm | 0 m/s | 0 W/m² | - |
| 1778032798 | 9.44° C | 99% | 1009.9 hPa | 8.89 mm | 0 m/s | 0 W/m² | - |
| 1778032495 | 9.44° C | 99% | 1011.1 hPa | 1.27 mm | 0.89 m/s, 245° | 0 W/m² | - |
| 1778032192 | 9.44° C | 99% | 1010.2 hPa | 1.27 mm | 0.45 m/s, 239° | 0 W/m² | - |
| 1778031889 | 9.44° C | 99% | 1009.5 hPa | 3.56 mm | 0 m/s | 0 W/m² | - |
| 1778031585 | 9.44° C | 99% | 1009.1 hPa | 3.56 mm | 0 m/s | 0 W/m² | - |
| 1778031284 | 9.44° C | 99% | 1009.6 hPa | 0 mm | 0 m/s | 0 W/m² | - |
* Rain latest hour (hover to see other rain measurements)
** Current wind speed in m/s (hover to see current wind gust speed)